RYR328B EVRA-EGSS

Flight info

Callsign RYR328B
Flight time 2h 26m
Altitude 38000
Route VALED DCT LASMA M864 ADAXA DCT NINTA DCT DIPEB DCT KOLJA DCT TIDVU DCT LILBI DCT RAXLU DCT ANDIK DCT NOGRO M40 RINIS
Aircraft B38M/M-SADE3FGIJ1LRWY/SB1

Departure

Time 2026-05-05 05:49
Airport Riga International Airport (EVRA)

Arrival

Time 2026-05-05 08:15
Airport London Stansted Airport (EGSS)
Time Latitude Longitude Altitude Speed Heading
2026-05-05 05:27 56.92546 23.97726 47 ft 0 kts 185°
2026-05-05 05:42 56.92547 23.97726 47 ft 1 kts 185°
2026-05-05 05:42 56.92566 23.97730 47 ft 3 kts 185°
2026-05-05 05:42 56.92583 23.97733 42 ft 3 kts 194°
2026-05-05 05:42 56.92597 23.97747 42 ft 3 kts 242°
2026-05-05 05:43 56.92600 23.97776 42 ft 3 kts 275°
2026-05-05 05:43 56.92599 23.97792 42 ft 0 kts 275°
2026-05-05 05:45 56.92599 23.97784 42 ft 2 kts 275°
2026-05-05 05:46 56.92602 23.97730 45 ft 7 kts 275°
2026-05-05 05:46 56.92609 23.97613 47 ft 11 kts 282°
2026-05-05 05:46 56.92657 23.97555 44 ft 10 kts 349°
2026-05-05 05:46 56.92733 23.97567 47 ft 14 kts
2026-05-05 05:47 56.92854 23.97589 45 ft 21 kts
2026-05-05 05:47 56.92952 23.97476 47 ft 18 kts 281°
2026-05-05 05:47 56.92957 23.97364 47 ft 1 kts 269°
2026-05-05 05:47 56.92957 23.97346 47 ft 0 kts 273°
2026-05-05 05:48 56.92959 23.97331 44 ft 3 kts 279°
2026-05-05 05:48 56.92961 23.97239 46 ft 10 kts 253°
2026-05-05 05:48 56.92923 23.97202 47 ft 0 kts 187°
2026-05-05 05:48 56.92786 23.97181 47 ft 57 kts 184°
2026-05-05 05:49 56.92123 23.97073 46 ft 131 kts 185°
2026-05-05 05:49 56.91056 23.96905 397 ft 162 kts 186°
2026-05-05 05:49 56.89966 23.96587 1511 ft 156 kts 197°
2026-05-05 05:49 56.88867 23.96347 2419 ft 165 kts 189°
2026-05-05 05:50 56.87677 23.96205 3153 ft 178 kts 188°
2026-05-05 05:50 56.86405 23.95900 3822 ft 191 kts 205°
2026-05-05 05:50 56.85332 23.94418 4415 ft 201 kts 237°
2026-05-05 05:50 56.84793 23.91966 5012 ft 222 kts 260°
2026-05-05 05:51 56.84519 23.89051 5712 ft 241 kts 260°
2026-05-05 05:51 56.84239 23.85925 6545 ft 254 kts 261°
2026-05-05 05:51 56.83963 23.82742 7669 ft 253 kts 261°
2026-05-05 05:51 56.83691 23.79553 8712 ft 257 kts 261°
2026-05-05 05:52 56.83418 23.76311 9754 ft 259 kts 261°
2026-05-05 05:52 56.83143 23.73016 10568 ft 268 kts 261°
2026-05-05 05:52 56.82854 23.69549 11154 ft 284 kts 261°
2026-05-05 05:52 56.82551 23.65903 11762 ft 297 kts 261°
2026-05-05 05:53 56.82236 23.62137 12570 ft 301 kts 261°
2026-05-05 05:53 56.81918 23.58347 13518 ft 303 kts 261°
2026-05-05 05:53 56.81596 23.54522 14265 ft 307 kts 261°
2026-05-05 05:53 56.81269 23.50651 15016 ft 310 kts 261°
2026-05-05 05:54 56.80938 23.46738 15746 ft 313 kts 261°
2026-05-05 05:54 56.80601 23.42785 16461 ft 317 kts 261°
2026-05-05 05:54 56.80261 23.38801 17165 ft 320 kts 261°
2026-05-05 05:54 56.79915 23.34772 17855 ft 323 kts 261°
2026-05-05 05:55 56.79565 23.30703 18480 ft 326 kts 261°
2026-05-05 05:55 56.79210 23.26593 19049 ft 329 kts 261°
2026-05-05 05:55 56.78850 23.22447 19609 ft 332 kts 261°
2026-05-05 05:55 56.78486 23.18271 20182 ft 335 kts 261°
2026-05-05 05:56 56.78117 23.14057 20736 ft 338 kts 261°
2026-05-05 05:56 56.77743 23.09802 21294 ft 341 kts 261°
2026-05-05 05:56 56.77365 23.05517 21841 ft 344 kts 261°
2026-05-05 05:56 56.76982 23.01187 22392 ft 347 kts 261°
2026-05-05 05:57 56.76594 22.96831 22945 ft 350 kts 261°
2026-05-05 05:57 56.76202 22.92436 23465 ft 353 kts 261°
2026-05-05 05:57 56.75803 22.87996 23931 ft 356 kts 260°
2026-05-05 05:57 56.75401 22.83530 24397 ft 359 kts 260°
2026-05-05 05:58 56.74994 22.79036 24847 ft 361 kts 260°
2026-05-05 05:58 56.74582 22.74492 25297 ft 364 kts 260°
2026-05-05 05:58 56.74171 22.69986 25734 ft 367 kts 260°
2026-05-05 05:58 56.73750 22.65387 26175 ft 370 kts 260°
2026-05-05 05:59 56.73323 22.60753 26601 ft 373 kts 260°
2026-05-05 05:59 56.72892 22.56077 27032 ft 375 kts 260°
2026-05-05 05:59 56.72458 22.51374 27452 ft 378 kts 260°
2026-05-05 05:59 56.72005 22.46649 27849 ft 381 kts 258°
2026-05-05 06:00 56.71437 22.41917 28244 ft 383 kts 257°
2026-05-05 06:00 56.70871 22.37161 28634 ft 386 kts 257°
2026-05-05 06:00 56.70305 22.32375 29040 ft 388 kts 257°
2026-05-05 06:00 56.69735 22.27546 29416 ft 391 kts 257°
2026-05-05 06:01 56.69161 22.22702 29801 ft 393 kts 257°
2026-05-05 06:01 56.68582 22.17821 30158 ft 396 kts 257°
2026-05-05 06:01 56.67998 22.12921 30478 ft 397 kts 257°
2026-05-05 06:01 56.67411 22.08011 30829 ft 399 kts 257°
2026-05-05 06:02 56.66820 22.03086 31164 ft 400 kts 257°
2026-05-05 06:02 56.66222 21.98123 31492 ft 401 kts 257°
2026-05-05 06:02 56.65621 21.93158 31822 ft 403 kts 257°
2026-05-05 06:02 56.65017 21.88177 32147 ft 404 kts 257°
2026-05-05 06:03 56.64411 21.83199 32464 ft 405 kts 257°
2026-05-05 06:03 56.63799 21.78189 32840 ft 405 kts 257°
2026-05-05 06:03 56.63189 21.73219 33315 ft 403 kts 257°
2026-05-05 06:03 56.62581 21.68277 33776 ft 401 kts 257°
2026-05-05 06:04 56.61971 21.63341 34145 ft 399 kts 257°
2026-05-05 06:04 56.61362 21.58424 34447 ft 399 kts 257°
2026-05-05 06:04 56.60751 21.53511 34717 ft 400 kts 257°
2026-05-05 06:04 56.60135 21.48580 35014 ft 400 kts 257°
2026-05-05 06:05 56.59518 21.43652 35276 ft 401 kts 257°
2026-05-05 06:05 56.58897 21.38718 35547 ft 402 kts 257°
2026-05-05 06:05 56.58273 21.33768 35825 ft 402 kts 257°
2026-05-05 06:05 56.57648 21.28833 36088 ft 402 kts 257°
2026-05-05 06:06 56.57020 21.23884 36341 ft 403 kts 257°
2026-05-05 06:06 56.56390 21.18942 36589 ft 403 kts 257°
2026-05-05 06:06 56.55756 21.13990 36833 ft 404 kts 257°
2026-05-05 06:06 56.55119 21.09020 37066 ft 404 kts 257°
2026-05-05 06:07 56.54480 21.04067 37302 ft 405 kts 257°
2026-05-05 06:07 56.53838 20.99095 37532 ft 405 kts 257°
2026-05-05 06:07 56.53195 20.94137 37746 ft 405 kts 257°
2026-05-05 06:07 56.52547 20.89154 37875 ft 406 kts 257°
2026-05-05 06:08 56.51249 20.79230 37885 ft 405 kts 257°
2026-05-05 06:08 56.49943 20.69308 37883 ft 405 kts 256°
2026-05-05 06:09 56.48621 20.59335 37891 ft 411 kts 256°
2026-05-05 06:09 56.47271 20.49217 37889 ft 416 kts 256°
2026-05-05 06:10 56.45905 20.39038 37892 ft 416 kts 256°
2026-05-05 06:10 56.44533 20.28874 37890 ft 416 kts 256°
2026-05-05 06:11 56.43308 20.18660 37898 ft 416 kts 260°
2026-05-05 06:11 56.42306 20.08368 37892 ft 416 kts 259°
2026-05-05 06:12 56.41270 19.98086 37895 ft 416 kts 259°
2026-05-05 06:12 56.40230 19.87883 37893 ft 416 kts 259°
2026-05-05 06:13 56.39173 19.77605 37893 ft 416 kts 259°
2026-05-05 06:13 56.38108 19.67339 37897 ft 416 kts 259°
2026-05-05 06:14 56.37035 19.57076 37898 ft 416 kts 259°
2026-05-05 06:14 56.35954 19.46828 37894 ft 416 kts 259°
2026-05-05 06:15 56.34866 19.36596 37896 ft 416 kts 259°
2026-05-05 06:15 56.33767 19.26355 37894 ft 416 kts 258°
2026-05-05 06:16 56.32661 19.16130 37897 ft 416 kts 258°
2026-05-05 06:16 56.31548 19.05915 37900 ft 416 kts 258°
2026-05-05 06:17 56.30428 18.95705 37902 ft 416 kts 258°
2026-05-05 06:17 56.29303 18.85496 37899 ft 416 kts 258°
2026-05-05 06:18 56.28173 18.75289 37900 ft 415 kts 258°
2026-05-05 06:18 56.27037 18.65099 37905 ft 415 kts 258°
2026-05-05 06:19 56.25893 18.54915 37907 ft 415 kts 258°
2026-05-05 06:19 56.24740 18.44735 37903 ft 415 kts 258°
2026-05-05 06:20 56.23580 18.34568 37903 ft 415 kts 258°
2026-05-05 06:20 56.22234 18.24474 37911 ft 415 kts 255°
2026-05-05 06:21 56.20746 18.14454 37908 ft 415 kts 255°
2026-05-05 06:21 56.19266 18.04436 37910 ft 415 kts 255°
2026-05-05 06:22 56.17765 17.94440 37907 ft 415 kts 255°
2026-05-05 06:22 56.16241 17.84447 37908 ft 415 kts 255°
2026-05-05 06:23 56.14709 17.74460 37909 ft 415 kts 255°
2026-05-05 06:23 56.13170 17.64485 37911 ft 415 kts 254°
2026-05-05 06:24 56.11621 17.54507 37910 ft 415 kts 254°
2026-05-05 06:24 56.10075 17.44603 37912 ft 415 kts 254°
2026-05-05 06:25 56.08511 17.34648 37912 ft 415 kts 254°
2026-05-05 06:25 56.06939 17.24701 37918 ft 415 kts 254°
2026-05-05 06:26 56.05617 17.16376 37914 ft 415 kts 254°
2026-05-05 06:26 56.04031 17.06448 37913 ft 415 kts 254°
2026-05-05 06:27 56.01639 16.91580 37916 ft 415 kts 253°
2026-05-05 06:28 56.00033 16.81682 37921 ft 415 kts 253°
2026-05-05 06:28 55.98396 16.71804 37926 ft 415 kts 253°
2026-05-05 06:29 55.96754 16.61934 37922 ft 414 kts 253°
2026-05-05 06:29 55.95105 16.52075 37928 ft 414 kts 253°
2026-05-05 06:30 55.93449 16.42227 37926 ft 414 kts 253°
2026-05-05 06:30 55.91797 16.32460 37923 ft 414 kts 253°
2026-05-05 06:31 55.90126 16.22632 37926 ft 414 kts 253°
2026-05-05 06:31 55.88449 16.12822 37927 ft 414 kts 253°
2026-05-05 06:32 55.86754 16.02964 37929 ft 414 kts 253°
2026-05-05 06:32 55.85060 15.93168 37928 ft 414 kts 252°
2026-05-05 06:33 55.83373 15.83458 37930 ft 414 kts 252°
2026-05-05 06:33 55.81665 15.73690 37930 ft 414 kts 252°
2026-05-05 06:34 55.79937 15.63853 37928 ft 414 kts 252°
2026-05-05 06:34 55.78224 15.54157 37931 ft 414 kts 252°
2026-05-05 06:35 55.76481 15.44342 37931 ft 414 kts 252°
2026-05-05 06:35 55.74751 15.34658 37934 ft 414 kts 252°
2026-05-05 06:36 55.73002 15.24915 37936 ft 414 kts 252°
2026-05-05 06:36 55.71246 15.15184 37940 ft 414 kts 252°
2026-05-05 06:37 55.69482 15.05458 37941 ft 414 kts 252°
2026-05-05 06:37 55.67709 14.95738 37935 ft 415 kts 252°
2026-05-05 06:38 55.65928 14.86021 37935 ft 415 kts 251°
2026-05-05 06:38 55.64138 14.76309 37937 ft 415 kts 251°
2026-05-05 06:39 55.62339 14.66602 37938 ft 415 kts 251°
2026-05-05 06:39 55.60534 14.56907 37939 ft 415 kts 251°
2026-05-05 06:40 55.58719 14.47207 37940 ft 415 kts 251°
2026-05-05 06:40 55.56897 14.37522 37942 ft 416 kts 251°
2026-05-05 06:41 55.55065 14.27835 37946 ft 416 kts 251°
2026-05-05 06:41 55.53225 14.18153 37944 ft 416 kts 251°
2026-05-05 06:42 55.51376 14.08475 37943 ft 416 kts 251°
2026-05-05 06:42 55.49520 13.98805 37946 ft 416 kts 251°
2026-05-05 06:43 55.47655 13.89142 37943 ft 416 kts 251°
2026-05-05 06:43 55.45783 13.79476 37943 ft 417 kts 251°
2026-05-05 06:44 55.43903 13.69810 37944 ft 417 kts 251°
2026-05-05 06:44 55.42014 13.60146 37944 ft 417 kts 251°
2026-05-05 06:45 55.40239 13.50423 37944 ft 418 kts 252°
2026-05-05 06:45 55.38502 13.40666 37942 ft 418 kts 252°
2026-05-05 06:46 55.36755 13.30916 37943 ft 418 kts 252°
2026-05-05 06:46 55.34999 13.21171 37946 ft 418 kts 252°
2026-05-05 06:47 55.33233 13.11424 37947 ft 419 kts 252°
2026-05-05 06:47 55.32947 13.09847 37947 ft 419 kts 252°
2026-05-05 06:48 55.31351 13.01088 37953 ft 419 kts 252°
2026-05-05 06:48 55.29570 12.91364 37960 ft 419 kts 252°
2026-05-05 06:49 55.27777 12.81627 37959 ft 419 kts 252°
2026-05-05 06:49 55.25989 12.71957 37959 ft 420 kts 252°
2026-05-05 06:50 55.23988 12.62276 37962 ft 420 kts 249°
2026-05-05 06:50 55.21969 12.52754 37962 ft 420 kts 249°
2026-05-05 06:51 55.19919 12.43095 37959 ft 420 kts 249°
2026-05-05 06:51 55.17889 12.33575 37964 ft 420 kts 249°
2026-05-05 06:52 55.15836 12.23989 37964 ft 421 kts 249°
2026-05-05 06:52 55.13779 12.14436 37964 ft 421 kts 249°
2026-05-05 06:53 55.11706 12.04849 37963 ft 421 kts 249°
2026-05-05 06:53 55.09629 11.95287 37960 ft 421 kts 249°
2026-05-05 06:54 55.07541 11.85720 37959 ft 422 kts 249°
2026-05-05 06:54 55.05444 11.76156 37963 ft 422 kts 249°
2026-05-05 06:55 55.03344 11.66620 37965 ft 422 kts 249°
2026-05-05 06:55 55.01232 11.57077 37963 ft 422 kts 249°
2026-05-05 06:56 54.99108 11.47524 37966 ft 423 kts 249°
2026-05-05 06:56 54.96978 11.37985 37964 ft 423 kts 249°
2026-05-05 06:57 54.94838 11.28448 37962 ft 423 kts 249°
2026-05-05 06:57 54.92690 11.18915 37964 ft 423 kts 249°
2026-05-05 06:58 54.90536 11.09401 37967 ft 423 kts 248°
2026-05-05 06:58 54.88374 10.99891 37966 ft 424 kts 248°
2026-05-05 06:59 54.86218 10.90455 37967 ft 423 kts 248°
2026-05-05 06:59 54.84030 10.80919 37967 ft 424 kts 248°
2026-05-05 07:00 54.81836 10.71401 37969 ft 424 kts 248°
2026-05-05 07:00 54.79636 10.61900 37968 ft 424 kts 248°
2026-05-05 07:01 54.77430 10.52415 37971 ft 424 kts 248°
2026-05-05 07:01 54.75222 10.42950 37971 ft 425 kts 248°
2026-05-05 07:02 54.73003 10.33474 37973 ft 425 kts 248°
2026-05-05 07:02 54.70798 10.24005 37962 ft 424 kts 242°
2026-05-05 07:03 54.67466 10.15677 37984 ft 425 kts 238°
2026-05-05 07:03 54.64293 10.07040 37971 ft 426 kts 238°
2026-05-05 07:04 54.61152 9.98358 37969 ft 426 kts 239°
2026-05-05 07:04 54.58015 9.89685 37968 ft 426 kts 239°
2026-05-05 07:05 54.54872 9.81020 37966 ft 427 kts 238°
2026-05-05 07:05 54.51719 9.72361 37965 ft 427 kts 238°
2026-05-05 07:06 54.48560 9.63713 37966 ft 427 kts 238°
2026-05-05 07:06 54.45395 9.55080 37964 ft 427 kts 238°
2026-05-05 07:07 54.42217 9.46443 37966 ft 427 kts 238°
2026-05-05 07:07 54.39036 9.37826 37966 ft 427 kts 238°
2026-05-05 07:08 54.35849 9.29223 37961 ft 427 kts 238°
2026-05-05 07:08 54.32651 9.20621 37961 ft 428 kts 238°
2026-05-05 07:09 54.29453 9.12047 37963 ft 428 kts 238°
2026-05-05 07:09 54.26783 9.04913 37961 ft 428 kts 238°
2026-05-05 07:10 54.23551 8.96303 37962 ft 428 kts 238°
2026-05-05 07:10 54.20351 8.87808 37962 ft 428 kts 238°
2026-05-05 07:11 54.17101 8.79211 37962 ft 428 kts 238°
2026-05-05 07:11 54.13869 8.70692 37965 ft 428 kts 238°
2026-05-05 07:12 54.10625 8.62168 37961 ft 428 kts 238°
2026-05-05 07:12 54.07396 8.53712 37964 ft 429 kts 237°
2026-05-05 07:13 54.04138 8.45209 37969 ft 429 kts 237°
2026-05-05 07:13 54.00868 8.36707 37966 ft 429 kts 237°
2026-05-05 07:14 53.97599 8.28233 37970 ft 430 kts 237°
2026-05-05 07:14 53.94311 8.19741 37969 ft 430 kts 237°
2026-05-05 07:15 53.91023 8.11275 37972 ft 430 kts 237°
2026-05-05 07:15 53.87722 8.02806 37971 ft 430 kts 237°
2026-05-05 07:16 53.84419 7.94360 37971 ft 430 kts 237°
2026-05-05 07:16 53.81106 7.85917 37968 ft 431 kts 237°
2026-05-05 07:17 53.77786 7.77488 37968 ft 431 kts 237°
2026-05-05 07:17 53.74460 7.69068 37967 ft 431 kts 237°
2026-05-05 07:18 53.71123 7.60649 37966 ft 431 kts 237°
2026-05-05 07:18 53.67785 7.52255 37967 ft 431 kts 237°
2026-05-05 07:19 53.64439 7.43872 37964 ft 431 kts 237°
2026-05-05 07:19 53.61086 7.35496 37967 ft 431 kts 237°
2026-05-05 07:20 53.57726 7.27133 37984 ft 431 kts 236°
2026-05-05 07:20 53.54363 7.18788 37986 ft 431 kts 236°
2026-05-05 07:21 53.50989 7.10446 37985 ft 431 kts 236°
2026-05-05 07:21 53.47611 7.02119 37985 ft 431 kts 236°
2026-05-05 07:22 53.44230 6.93815 37984 ft 432 kts 236°
2026-05-05 07:22 53.40837 6.85506 37979 ft 432 kts 236°
2026-05-05 07:23 53.37436 6.77208 37969 ft 432 kts 236°
2026-05-05 07:23 53.34033 6.68930 37965 ft 432 kts 236°
2026-05-05 07:24 53.30622 6.60659 37965 ft 432 kts 236°
2026-05-05 07:24 53.27220 6.52438 37967 ft 432 kts 236°
2026-05-05 07:25 53.23772 6.44134 37966 ft 433 kts 236°
2026-05-05 07:25 53.20362 6.35946 37966 ft 433 kts 236°
2026-05-05 07:26 53.16919 6.27707 37967 ft 433 kts 236°
2026-05-05 07:26 53.13468 6.19474 37965 ft 433 kts 236°
2026-05-05 07:27 53.09991 6.11207 37980 ft 433 kts 236°
2026-05-05 07:27 53.06548 6.03048 37981 ft 434 kts 235°
2026-05-05 07:28 53.03078 5.94852 37979 ft 434 kts 235°
2026-05-05 07:28 52.99600 5.86662 37981 ft 434 kts 235°
2026-05-05 07:29 52.96121 5.78497 37979 ft 434 kts 235°
2026-05-05 07:29 52.92626 5.70317 37978 ft 434 kts 235°
2026-05-05 07:30 52.89132 5.62163 37980 ft 434 kts 235°
2026-05-05 07:30 52.83875 5.49939 37975 ft 435 kts 235°
2026-05-05 07:31 52.80365 5.41809 37972 ft 435 kts 235°
2026-05-05 07:31 52.76841 5.33671 37975 ft 435 kts 235°
2026-05-05 07:32 52.73455 5.25428 37976 ft 433 kts 242°
2026-05-05 07:32 52.70463 5.16796 37980 ft 434 kts 240°
2026-05-05 07:33 52.67403 5.08186 37975 ft 434 kts 240°
2026-05-05 07:33 52.64341 4.99626 37980 ft 434 kts 239°
2026-05-05 07:34 52.61280 4.91097 37974 ft 434 kts 239°
2026-05-05 07:34 52.58201 4.82549 37970 ft 434 kts 239°
2026-05-05 07:35 52.55114 4.74004 37971 ft 434 kts 239°
2026-05-05 07:35 52.52022 4.65480 37968 ft 434 kts 239°
2026-05-05 07:36 52.48949 4.57033 37969 ft 435 kts 239°
2026-05-05 07:36 52.45841 4.48518 37970 ft 435 kts 239°
2026-05-05 07:37 52.42706 4.39959 37969 ft 435 kts 239°
2026-05-05 07:37 52.39587 4.31473 37970 ft 435 kts 239°
2026-05-05 07:38 52.36462 4.23000 37970 ft 435 kts 239°
2026-05-05 07:38 52.33349 4.14585 37976 ft 435 kts 239°
2026-05-05 07:39 52.30191 4.06080 37972 ft 435 kts 239°
2026-05-05 07:39 52.27040 3.97620 37974 ft 436 kts 239°
2026-05-05 07:40 52.23913 3.89251 37976 ft 436 kts 239°
2026-05-05 07:40 52.20744 3.80800 37971 ft 436 kts 238°
2026-05-05 07:41 52.17569 3.72363 37973 ft 437 kts 238°
2026-05-05 07:41 52.14385 3.63928 37974 ft 437 kts 238°
2026-05-05 07:42 52.11210 3.55545 37968 ft 437 kts 238°
2026-05-05 07:42 52.07995 3.47081 37970 ft 438 kts 238°
2026-05-05 07:43 52.04786 3.38665 37978 ft 438 kts 238°
2026-05-05 07:43 52.01573 3.30257 37980 ft 438 kts 238°
2026-05-05 07:44 51.98370 3.21901 37480 ft 431 kts 238°
2026-05-05 07:44 51.97052 3.17583 36946 ft 426 kts 252°
2026-05-05 07:44 51.96465 3.12893 36377 ft 424 kts 261°
2026-05-05 07:45 51.96071 3.08172 35770 ft 423 kts 261°
2026-05-05 07:45 51.95714 3.03422 34977 ft 433 kts 262°
2026-05-05 07:45 51.95382 2.98403 34144 ft 455 kts 262°
2026-05-05 07:45 51.95043 2.93304 33987 ft 453 kts 262°
2026-05-05 07:46 51.94373 2.83373 33694 ft 422 kts 262°
2026-05-05 07:46 51.94047 2.78738 33294 ft 407 kts 262°
2026-05-05 07:46 51.93740 2.74268 32889 ft 391 kts 262°
2026-05-05 07:47 51.93447 2.69969 32496 ft 376 kts 262°
2026-05-05 07:47 51.93166 2.65849 32117 ft 362 kts 262°
2026-05-05 07:47 51.92890 2.61826 31359 ft 359 kts 262°
2026-05-05 07:47 51.92620 2.57896 30742 ft 352 kts 262°
2026-05-05 07:48 51.92350 2.53992 30132 ft 346 kts 262°
2026-05-05 07:48 51.92083 2.50142 29370 ft 342 kts 262°
2026-05-05 07:48 51.91817 2.46331 28565 ft 339 kts 262°
2026-05-05 07:48 51.91549 2.42500 27774 ft 337 kts 262°
2026-05-05 07:49 51.91288 2.38806 27021 ft 335 kts 261°
2026-05-05 07:49 51.91023 2.35043 26274 ft 334 kts 261°
2026-05-05 07:49 51.90826 2.31259 25551 ft 333 kts 266°
2026-05-05 07:49 51.90763 2.27568 24856 ft 331 kts 266°
2026-05-05 07:50 51.90682 2.23848 24179 ft 330 kts 265°
2026-05-05 07:50 51.90595 2.20151 23507 ft 329 kts 265°
2026-05-05 07:50 51.90505 2.16449 22758 ft 327 kts 265°
2026-05-05 07:50 51.90412 2.12786 22068 ft 324 kts 265°
2026-05-05 07:51 51.90319 2.09155 21390 ft 321 kts 265°
2026-05-05 07:51 51.90225 2.05574 20732 ft 318 kts 265°
2026-05-05 07:51 51.90131 2.02028 20080 ft 316 kts 265°
2026-05-05 07:51 51.90036 1.98469 19454 ft 313 kts 265°
2026-05-05 07:52 51.89942 1.94968 18812 ft 312 kts 266°
2026-05-05 07:52 51.89849 1.91440 18172 ft 310 kts 268°
2026-05-05 07:52 51.90149 1.88043 17705 ft 304 kts 290°
2026-05-05 07:52 51.91076 1.84952 17396 ft 308 kts 296°
2026-05-05 07:53 51.91736 1.82846 17203 ft 309 kts 296°
2026-05-05 07:53 51.93041 1.78771 16841 ft 308 kts 297°
2026-05-05 07:53 51.93701 1.76738 16670 ft 307 kts 297°
2026-05-05 07:53 51.94710 1.73644 16396 ft 305 kts 297°
2026-05-05 07:54 51.95692 1.70650 16133 ft 304 kts 297°
2026-05-05 07:54 51.96681 1.67637 15881 ft 302 kts 297°
2026-05-05 07:54 51.97683 1.64585 15611 ft 301 kts 297°
2026-05-05 07:54 51.98648 1.61645 15353 ft 299 kts 297°
2026-05-05 07:55 51.99622 1.58672 15086 ft 298 kts 297°
2026-05-05 07:55 52.00599 1.55686 14832 ft 297 kts 297°
2026-05-05 07:55 52.01553 1.52771 14579 ft 295 kts 297°
2026-05-05 07:55 52.02526 1.49795 14323 ft 294 kts 297°
2026-05-05 07:56 52.03471 1.46897 14069 ft 293 kts 297°
2026-05-05 07:56 52.04434 1.43940 13818 ft 292 kts 297°
2026-05-05 07:56 52.05382 1.41027 13534 ft 291 kts 298°
2026-05-05 07:56 52.06312 1.38168 13262 ft 290 kts 297°
2026-05-05 07:57 52.07248 1.35285 12993 ft 288 kts 298°
2026-05-05 07:57 52.08186 1.32392 12754 ft 286 kts 298°
2026-05-05 07:57 52.09113 1.29533 12512 ft 285 kts 298°
2026-05-05 07:57 52.10032 1.26694 12262 ft 283 kts 297°
2026-05-05 07:58 52.10946 1.23860 12050 ft 281 kts 296°
2026-05-05 07:58 52.11486 1.20799 11844 ft 279 kts 272°
2026-05-05 07:58 52.11224 1.17723 11746 ft 280 kts 257°
2026-05-05 07:58 52.10758 1.14666 11648 ft 281 kts 257°
2026-05-05 07:59 52.10271 1.11565 11530 ft 281 kts 256°
2026-05-05 07:59 52.09776 1.08489 11410 ft 280 kts 256°
2026-05-05 07:59 52.09277 1.05433 11312 ft 280 kts 256°
2026-05-05 07:59 52.08774 1.02393 11197 ft 279 kts 256°
2026-05-05 08:00 52.08269 0.99356 11090 ft 279 kts 256°
2026-05-05 08:00 52.07756 0.96289 10970 ft 279 kts 256°
2026-05-05 08:00 52.07247 0.93245 10856 ft 278 kts 256°
2026-05-05 08:00 52.06740 0.90228 10745 ft 277 kts 256°
2026-05-05 08:01 52.06288 0.87532 10633 ft 277 kts 256°
2026-05-05 08:01 52.05780 0.84518 10418 ft 277 kts 256°
2026-05-05 08:01 52.05270 0.81493 10103 ft 278 kts 256°
2026-05-05 08:01 52.04759 0.78466 9732 ft 277 kts 256°
2026-05-05 08:02 52.04251 0.75469 9335 ft 276 kts 256°
2026-05-05 08:02 52.03741 0.72466 8964 ft 273 kts 256°
2026-05-05 08:02 52.03238 0.69501 8608 ft 271 kts 256°
2026-05-05 08:02 52.02741 0.66577 8321 ft 266 kts 256°
2026-05-05 08:03 52.02257 0.63741 8187 ft 256 kts 256°
2026-05-05 08:03 52.01792 0.61012 8092 ft 245 kts 256°
2026-05-05 08:03 52.01476 0.58302 7825 ft 247 kts 266°
2026-05-05 08:03 52.01326 0.55477 7360 ft 253 kts 266°
2026-05-05 08:04 52.01168 0.52615 6937 ft 256 kts 266°
2026-05-05 08:04 52.01002 0.49721 6528 ft 259 kts 266°
2026-05-05 08:04 52.00833 0.46800 6107 ft 260 kts 266°
2026-05-05 08:04 52.00724 0.43950 6031 ft 247 kts 268°
2026-05-05 08:05 52.00624 0.41246 6023 ft 241 kts 268°
2026-05-05 08:05 52.00522 0.38486 6013 ft 242 kts 268°
2026-05-05 08:05 52.00420 0.35749 6010 ft 242 kts 268°
2026-05-05 08:05 52.00317 0.33017 6009 ft 242 kts 268°
2026-05-05 08:06 52.00213 0.30282 6003 ft 242 kts 267°
2026-05-05 08:06 51.99840 0.27662 5981 ft 242 kts 242°
2026-05-05 08:06 51.98774 0.25551 6020 ft 244 kts 225°
2026-05-05 08:06 51.97563 0.23593 6004 ft 245 kts 225°
2026-05-05 08:07 51.96333 0.21680 5846 ft 247 kts 223°
2026-05-05 08:07 51.95059 0.19783 5481 ft 249 kts 222°
2026-05-05 08:07 51.93783 0.17889 5150 ft 249 kts 222°
2026-05-05 08:07 51.92534 0.16039 4832 ft 248 kts 222°
2026-05-05 08:08 51.91243 0.14125 4485 ft 248 kts 222°
2026-05-05 08:08 51.89976 0.12249 4148 ft 248 kts 221°
2026-05-05 08:08 51.88698 0.10358 3815 ft 248 kts 222°
2026-05-05 08:08 51.87452 0.08516 3488 ft 247 kts 222°
2026-05-05 08:09 51.86177 0.06635 3151 ft 247 kts 221°
2026-05-05 08:09 51.84926 0.04684 2919 ft 243 kts 225°
2026-05-05 08:09 51.83768 0.02825 2823 ft 232 kts 225°
2026-05-05 08:09 51.82634 0.01010 2778 ft 220 kts 225°
2026-05-05 08:10 51.81565 -0.00683 2756 ft 211 kts 222°
2026-05-05 08:10 51.80258 -0.01662 2677 ft 208 kts 181°
2026-05-05 08:10 51.78934 -0.01273 2727 ft 189 kts 152°
2026-05-05 08:10 51.77903 -0.00090 2718 ft 177 kts 126°
2026-05-05 08:11 51.77312 0.01612 2685 ft 170 kts 101°
2026-05-05 08:11 51.77177 0.03454 2678 ft 168 kts 88°
2026-05-05 08:11 51.77142 0.05343 2561 ft 168 kts 83°
2026-05-05 08:11 51.77583 0.06992 2474 ft 159 kts 45°
2026-05-05 08:12 51.78358 0.08267 2544 ft 157 kts 43°
2026-05-05 08:12 51.79128 0.09466 2493 ft 153 kts 42°
2026-05-05 08:12 51.79904 0.10636 2443 ft 154 kts 42°
2026-05-05 08:12 51.80677 0.11792 2271 ft 147 kts 41°
2026-05-05 08:13 51.81412 0.12889 2086 ft 143 kts 41°
2026-05-05 08:13 51.82140 0.13976 1901 ft 143 kts 41°
2026-05-05 08:13 51.82865 0.15057 1711 ft 141 kts 41°
2026-05-05 08:13 51.83587 0.16140 1515 ft 141 kts 41°
2026-05-05 08:14 51.84310 0.17221 1317 ft 142 kts 41°
2026-05-05 08:14 51.85032 0.18302 1114 ft 143 kts 42°
2026-05-05 08:14 51.85758 0.19388 924 ft 143 kts 40°
2026-05-05 08:14 51.86501 0.20475 680 ft 142 kts 40°
2026-05-05 08:15 51.87203 0.21543 505 ft 137 kts 40°
2026-05-05 08:15 51.87895 0.22572 361 ft 129 kts 40°
2026-05-05 08:15 51.88456 0.23412 355 ft 79 kts 43°
2026-05-05 08:15 51.88743 0.23847 341 ft 48 kts 44°
2026-05-05 08:16 51.88880 0.24247 349 ft 36 kts 72°
2026-05-05 08:16 51.88916 0.24479 358 ft 13 kts 106°
2026-05-05 08:16 51.88930 0.24605 351 ft 12 kts 51°
2026-05-05 08:16 51.88994 0.24706 351 ft 14 kts 43°
2026-05-05 08:17 51.89074 0.24826 352 ft 17 kts 43°
2026-05-05 08:17 51.89169 0.24968 351 ft 20 kts 43°
2026-05-05 08:17 51.89257 0.25154 356 ft 22 kts 54°
2026-05-05 08:17 51.89370 0.25332 353 ft 24 kts 42°
2026-05-05 08:18 51.89495 0.25533 355 ft 26 kts 43°
2026-05-05 08:18 51.89609 0.25731 357 ft 17 kts 82°
2026-05-05 08:18 51.89549 0.25846 351 ft 14 kts 150°
2026-05-05 08:18 51.89472 0.25961 355 ft 16 kts 133°
2026-05-05 08:19 51.89447 0.26002 356 ft 2 kts 142°
2026-05-05 08:19 51.89442 0.26004 355 ft 2 kts 167°
2026-05-05 08:19 51.89425 0.25995 355 ft 3 kts 217°
2026-05-05 08:19 51.89413 0.25975 357 ft 4 kts 226°
2026-05-05 08:20 51.89400 0.25956 356 ft 2 kts 218°
2026-05-05 08:20 51.89394 0.25948 356 ft 0 kts 223°
2026-05-05 08:20 51.89393 0.25946 356 ft 0 kts 223°